CW5302 Weather Reports


Display with metric or nautical units.
time (UTC)temp
F
wind
direction
speed
MPH
gust
MPH
rain 1hr
in
rain 24hr
in
rain mn
in
humidity
%
barometer
mb
20260510105318 52 269 0.0 0.0 0.00 0.00 0.00 89 1014.1
20260510104328 52 270 0.0 0.0 0.00 0.00 0.00 89 1014.0
20260510103321 52 270 0.0 1.0 0.00 0.00 0.00 90 1014.0
20260510102318 52 270 0.0 0.0 0.00 0.00 0.00 89 1013.8
20260510101330 52 270 0.0 0.0 0.00 0.00 0.00 89 1013.6
20260510100323 53 270 0.0 0.0 0.00 0.00 0.00 88 1013.6
20260510095335 54 270 0.0 0.0 0.00 0.00 0.00 86 1013.5
20260510094325 54 270 0.0 0.0 0.00 0.00 0.00 86 1013.5
20260510093337 54 270 0.0 0.0 0.00 0.00 0.00 85 1013.5
20260510092329 54 270 0.0 0.0 0.00 0.00 0.00 85 1013.5
20260510091329 55 270 0.0 0.0 0.00 0.00 0.00 84 1013.5
20260510090321 55 270 0.0 0.0 0.00 0.00 0.00 82 1013.5
20260510085332 56 270 0.0 0.0 0.00 0.00 0.00 80 1013.4
20260510084325 56 270 0.0 0.0 0.00 0.00 0.00 80 1013.3
20260510083433 56 270 0.0 0.0 0.00 0.00 0.00 79 1013.3
20260510082352 56 270 0.0 0.0 0.00 0.00 0.00 79 1013.3
20260510081321 56 270 0.0 0.0 0.00 0.00 0.00 81 1013.4
20260510080353 56 270 0.0 0.0 0.00 0.00 0.00 81 1013.4
20260510075322 56 270 0.0 0.0 0.00 0.00 0.00 84 1013.2
20260510074317 57 270 0.0 0.0 0.00 0.00 0.00 83 1013.3
20260510073350 57 270 0.0 0.0 0.00 0.00 0.00 82 1013.3
20260510072320 57 270 0.0 0.0 0.00 0.00 0.00 83 1013.1
20260510071333 58 270 0.0 0.0 0.00 0.00 0.00 84 1013.0
20260510070323 58 270 0.0 0.0 0.00 0.00 0.00 86 1013.0
20260510065320 59 270 0.0 0.0 0.00 0.00 0.00 85 1012.9
20260510064350 59 270 0.0 0.0 0.00 0.00 0.00 83 1012.8
20260510063327 60 270 0.0 0.0 0.00 0.00 0.00 81 1012.8
20260510062320 60 270 0.0 0.0 0.00 0.00 0.00 79 1012.7
20260510061319 61 270 0.0 0.0 0.00 0.00 0.00 78 1012.6
20260510060315 62 270 0.0 0.0 0.00 0.00 0.00 75 1012.6
20260510055330 63 270 0.0 0.0 0.00 0.00 0.00 72 1012.6
20260510054340 64 270 0.0 0.0 0.00 0.00 0.00 71 1012.6
20260510053350 65 270 0.0 0.0 0.00 0.00 0.00 71 1012.6
20260510052326 66 270 0.0 0.0 0.00 0.00 0.00 64 1012.5
20260510051335 67 270 0.0 0.0 0.00 0.00 0.00 60 1012.5
20260510050328 67 271 0.0 2.0 0.00 0.00 0.00 59 1012.5
20260510045326 68 306 0.0 5.0 0.00 0.00 0.00 58 1012.3
20260510044316 68 336 0.0 3.0 0.00 0.00 0.00 58 1012.0
20260510043333 68 261 0.0 1.0 0.00 0.00 0.00 58 1012.0
20260510042342 69 337 0.0 4.0 0.00 0.00 0.00 57 1011.8
20260510041330 69 295 0.0 0.0 0.00 0.00 0.00 58 1011.4
20260510040348 70 324 0.0 0.0 0.00 0.00 0.00 56 1011.4
20260510035318 71 285 0.0 0.0 0.00 0.00 0.00 56 1011.3
20260510034351 72 316 0.0 0.0 0.00 0.00 0.00 56 1010.9
20260510033324 73 316 0.0 0.0 0.00 0.00 0.00 54 1010.9
20260510032316 73 304 0.0 1.0 0.00 0.00 0.00 53 1010.8
20260510031330 74 309 0.0 5.0 0.00 0.00 0.00 52 1010.6
20260510030322 75 273 0.0 4.0 0.00 0.00 0.00 51 1010.6
20260510025330 76 300 0.0 5.0 0.00 0.00 0.00 50 1010.4
20260510024325 77 294 0.0 4.0 0.00 0.00 0.00 48 1010.3
20260510023336 78 294 0.0 7.0 0.00 0.00 0.00 47 1010.3
20260510022326 79 320 0.0 4.0 0.00 0.00 0.00 45 1010.0
20260510021323 80 299 0.0 3.0 0.00 0.00 0.00 43 1010.0
20260510020317 81 30 1.0 5.0 0.00 0.00 0.00 41 1010.0
20260510015328 83 337 0.0 0.0 0.00 0.00 0.00 34 1009.9
20260510014355 83 337 0.0 3.0 0.00 0.00 0.00 32 1009.9
20260510013328 83 17 0.0 1.0 0.00 0.00 0.00 33 1009.9
20260510012326 83 24 0.0 3.0 0.00 0.00 0.00 32 1009.9
20260510011321 83 329 0.0 6.0 0.00 0.00 0.00 34 1009.9
20260510010353 83 50 0.0 4.0 0.00 0.00 0.00 34 1009.9
20260510005322 84 11 0.0 2.0 0.00 0.00 0.00 35 1009.9
20260510004335 84 5 0.0 6.0 0.00 0.00 0.00 34 1009.9
20260510003329 84 44 0.0 5.0 0.00 0.00 0.00 38 1009.9
20260510002320 84 294 1.0 6.0 0.00 0.00 0.00 33 1009.9
20260510001331 84 349 0.0 4.0 0.00 0.00 0.00 40 1010.1
20260510000348 84 322 0.0 2.0 0.00 0.00 0.00 33 1010.1
20260509235314 84 5 0.0 4.0 0.00 0.00 0.00 30 1010.3
20260509234314 84 15 0.0 4.0 0.00 0.00 0.00 28 1010.3
20260509233348 84 335 0.0 6.0 0.00 0.00 0.00 29 1010.3
20260509232325 84 302 0.0 3.0 0.00 0.00 0.00 28 1010.3
20260509231336 84 333 1.0 5.0 0.00 0.00 0.00 29 1010.4
20260509230349 84 337 1.0 3.0 0.00 0.00 0.00 29 1010.4
20260509225320 84 310 0.0 4.0 0.00 0.00 0.00 28 1010.7
20260509224334 83 323 0.0 3.0 0.00 0.00 0.00 27 1010.9
20260509223324 82 337 0.0 3.0 0.00 0.00 0.00 28 1010.9
20260509222335 82 355 0.0 6.0 0.00 0.00 0.00 29 1011.0
20260509221328 82 284 0.0 4.0 0.00 0.00 0.00 33 1011.4
20260509220323 82 318 0.0 1.0 0.00 0.00 0.00 33 1011.4
20260509215321 82 310 0.0 1.0 0.00 0.00 0.00 38 1011.8
20260509214332 81 350 0.0 3.0 0.00 0.00 0.00 37 1011.8
20260509213327 81 323 0.0 2.0 0.00 0.00 0.00 37 1011.8
20260509212326 80 225 0.0 4.0 0.00 0.00 0.00 41 1012.0
20260509211320 79 250 1.0 10.0 0.00 0.00 0.00 44 1012.2
20260509210356 79 293 0.0 6.0 0.00 0.00 0.00 44 1012.2
20260509205326 78 5 0.0 6.0 0.00 0.00 0.00 53 1012.4
20260509204316 78 294 0.0 5.0 0.00 0.00 0.00 45 1012.6
20260509203332 77 360 1.0 6.0 0.00 0.00 0.00 47 1012.6
20260509202330 76 333 0.0 0.0 0.00 0.00 0.00 48 1012.7
20260509201324 75 63 0.0 7.0 0.00 0.00 0.00 49 1013.0
20260509200316 74 309 1.0 3.0 0.00 0.00 0.00 49 1013.0
20260509195329 74 206 0.0 4.0 0.00 0.00 0.00 53 1013.3
20260509194341 74 279 0.0 3.0 0.00 0.00 0.00 54 1013.5
20260509193334 73 277 0.0 5.0 0.00 0.00 0.00 56 1013.5
20260509192331 72 355 0.0 1.0 0.00 0.00 0.00 60 1013.7
20260509191324 71 241 0.0 4.0 0.00 0.00 0.00 57 1013.9
20260509190341 71 277 0.0 3.0 0.00 0.00 0.00 55 1013.9
20260509185335 71 334 1.0 6.0 0.00 0.00 0.00 56 1014.1
20260509184329 70 282 0.0 3.0 0.00 0.00 0.00 56 1014.2
20260509183343 70 329 0.0 6.0 0.00 0.00 0.00 57 1014.2
20260509182334 69 302 0.0 0.0 0.00 0.00 0.00 57 1014.4
20260509181328 68 300 0.0 0.0 0.00 0.00 0.00 60 1014.5
20260509180321 68 317 0.0 1.0 0.00 0.00 0.00 60 1014.5
20260509175352 67 261 0.0 0.0 0.00 0.00 0.00 63 1014.6
20260509174325 66 39 0.0 0.0 0.00 0.00 0.00 65 1014.7
20260509173322 66 350 0.0 0.0 0.00 0.00 0.00 64 1014.7
20260509172335 65 344 0.0 4.0 0.00 0.00 0.00 64 1015.1
20260509171347 64 274 0.0 0.0 0.00 0.00 0.00 65 1015.1
20260509170319 63 223 0.0 0.0 0.00 0.00 0.00 70 1015.1
20260509165348 62 244 0.0 0.0 0.00 0.00 0.00 70 1015.3
20260509164345 61 171 0.0 0.0 0.00 0.00 0.00 74 1015.5
20260509163357 62 171 0.0 0.0 0.00 0.00 0.00 72 1015.5
20260509162326 61 204 0.0 0.0 0.00 0.00 0.00 74 1015.6
20260509161319 59 206 0.0 0.0 0.00 0.00 0.00 77 1015.8
20260509160336 57 256 0.0 0.0 0.00 0.00 0.00 80 1015.8
20260509155327 56 256 0.0 0.0 0.00 0.00 0.00 82 1015.8
20260509154321 56 256 0.0 0.0 0.00 0.00 0.00 84 1016.1
20260509153335 55 256 0.0 0.0 0.00 0.00 0.00 87 1016.1
20260509152327 54 256 0.0 0.0 0.00 0.00 0.00 92 1016.1
20260509151342 52 256 0.0 0.0 0.00 0.00 0.00 97 1016.2
20260509150334 51 256 0.0 0.0 0.00 0.00 0.00 98 1016.2
20260509145326 50 256 0.0 0.0 0.00 0.00 0.00 98 1016.3
20260509144336 50 256 0.0 0.0 0.00 0.00 0.00 98 1016.3
20260509143312 49 256 0.0 0.0 0.00 0.00 0.00 99 1016.3
20260509142327 49 256 0.0 0.0 0.00 0.00 0.00 99 1016.6
20260509141327 48 256 0.0 0.0 0.00 0.00 0.00 98 1016.5
20260509140317 47 256 0.0 0.0 0.00 0.00 0.00 99 1016.5
20260509135333 47 256 0.0 0.0 0.00 0.00 0.00 99 1016.3
20260509134325 46 256 0.0 0.0 0.00 0.00 0.00 98 1016.2
20260509133322 46 256 0.0 0.0 0.00 0.00 0.00 98 1016.2
20260509132332 45 256 0.0 0.0 0.00 0.00 0.00 98 1016.5
20260509131327 45 256 0.0 0.0 0.00 0.00 0.00 97 1016.6
20260509130323 45 256 0.0 0.0 0.00 0.00 0.00 97 1016.6
20260509125319 45 256 0.0 0.0 0.00 0.00 0.00 97 1016.5
20260509124336 46 256 0.0 0.0 0.00 0.00 0.00 97 1016.6
20260509123330 46 256 0.0 0.0 0.00 0.00 0.00 97 1016.6
20260509122340 46 256 0.0 0.0 0.00 0.00 0.00 97 1016.5
20260509121329 46 256 0.0 0.0 0.00 0.00 0.00 96 1016.4
20260509120320 46 256 0.0 0.0 0.00 0.00 0.00 96 1016.4
20260509115330 47 256 0.0 0.0 0.00 0.00 0.00 96 1016.6
20260509114325 47 256 0.0 0.0 0.00 0.00 0.00 97 1016.6
20260509113334 47 256 0.0 0.0 0.00 0.00 0.00 96 1016.6
20260509112328 47 256 0.0 0.0 0.00 0.00 0.00 96 1016.7
20260509111319 47 256 0.0 0.0 0.00 0.00 0.00 96 1016.7
20260509110334 47 256 0.0 0.0 0.00 0.00 0.00 96 1016.7